Location: Bois de la Silve
(44.4667°N, 6.7833°E)
Time: 09:37:46
(UTC+00:00)

USA 238 DEB - Pass Details

Date: 14 July 2020
Orbit: 1012 x 1200 km, 63.4° (Epoch: 02 August)

Event Time Altitude Azimuth Distance (km) Brightness Sun altitude
Exits shadow 02:58:24 - 201° (SSW) 2,930 5.4 -9.7°
Reaches altitude 10° 02:58:46 10° 200° (SSW) 2,800 5.3 -9.7°
Maximum altitude 03:05:14 63° 121° (ESE) 1,153 4.0 -8.9°
Drops below altitude 10° 03:11:59 10° 42° (NE) 2,914 7.7 -8.0°
Sets 03:14:43 0° 40° (NE) 3,900 8.8 -7.6°
